AirNav   ATP
 
 1636 users online  

VG57 Maples Field Airport
Catlett, Virginia, USA

GOING TO CATLETT?


FAA INFORMATION EFFECTIVE 14 SEPTEMBER 2017

Location

FAA Identifier: VG57
Lat/Long: 38-36-20.4350N / 077-35-04.9580W
38-36.340583N / 077-35.082633W
38.6056764 / -77.5847106
(estimated)
Elevation: 225 ft. / 69 m (estimated)
Variation: 09W (1985)
From city: 4 miles SE of CATLETT, VA
Time zone: UTC -4 (UTC -5 during Standard Time)
Zip code: 20119

Airport Operations

Airport use: Private use. Permission required prior to landing
Activation date: 12/1985
Control tower: no
ARTCC: WASHINGTON CENTER
FSS: LEESBURG FLIGHT SERVICE STATION
Attendance: IRREG
Wind indicator: lighted
Segmented circle: no

Airport Communications

WX AWOS-3 at HWY (6 nm W): 120.350 (540-788-4078)
WX AWOS-3PT at HEF (8 nm NE): PHONE 703-361-6160
WX AWOS-3 at CJR (14 nm W): 119.325 (540-727-0523)
WX AWOS-3 at RMN (14 nm SE): 126.325 (540-657-8283)

Nearby radio navigation aids

VOR radial/distance  VOR name  Freq  Var
CSNr105/13.3CASANOVA VORTAC116.3006W
BRVr335/19.5BROOKE VORTAC114.5009W
AMLr204/20.5ARMEL VOR/DME113.5008W
DCAr248/29.8WASHINGTON VOR/DME111.0009W
LDNr123/32.7LINDEN VORTAC114.3006W
ADWr260/35.7ANDREWS VORTAC113.1010W
OTTr271/39.8NOTTINGHAM VORTAC113.7010W

 
NDB name  Hdg/Dist  Freq  Var  ID
NAILR069/17.635110WMSQ -- ... --.-
SHANNON353/21.323710WEZF . --.. ..-.
DAVEE270/22.522309WDAA -.. .- .-
GOODWIN LAKE159/23.922708WGDX --. -.. -..-
OXONN261/27.833211WDCA -.. -.-. .-
GEORGETOWN237/29.032309WGTN --. - -.

Airport Services

Parking: tiedowns

Runway Information

Runway 4/22

Dimensions: 2450 x 45 ft. / 747 x 14 m
Surface: turf, in fair condition
RUNWAY 4  RUNWAY 22
Traffic pattern: leftleft
Obstructions: 15 ft. road, 140 ft. from runway, 9:1 slope to clear35 ft. tree, 569 ft. from runway, 40 ft. right of centerline, 16:1 slope to clear

Airport Ownership and Management from official FAA records

Ownership: Privately-owned
Owner: CHARLES MAPLES
3818 DANIELS RUN COURT
FAIRFAX, VA 22030
Phone 703-218-9801
Manager: CHARLES MAPLES
3818 DANIELS RUN COURT
FAIRFAX, VA 22030
Phone 703-218-9801

Airport Operational Statistics

Aircraft based on the field: 23
Single engine airplanes: 3
Ultralights: 20
  • ULTRALIGHT ACTIVITY ON & INVOF ARPT.
    
Aircraft operations: avg 25/week *
92% local general aviation
8% transient general aviation
<1% military
* for 12-month period ending 07 March 1997

Additional Remarks

RY 22 4 FT WOOD FENCE 120 FT FM END OF RY.

Instrument Procedures

There are no published instrument procedures at VG57.

Some nearby airports with instrument procedures:

KHWY - Warrenton-Fauquier Airport (6 nm W)
KHEF - Manassas Regional Airport/Harry P. Davis Field (8 nm NE)
KCJR - Culpeper Regional Airport (14 nm W)
KRMN - Stafford Regional Airport (14 nm SE)
KNYG - Quantico Marine Corps Airfield / Turner Field (14 nm SE)
 
Loc | Ops | Rwys | IFR | FBO | Links
Com | Nav | Svcs | Stats | Notes


 
Area around VG57 (Maples Field Airport)
 
Road maps at: MapQuest Bing Google
 
Aerial photo
WARNING: Photo may not be current or correct
Aerial photo of VG57 (Maples Field Airport)
Do you have a better or more recent aerial photo of Maples Field Airport that you would like to share? If so, please send us your photo.

 
Sectional chart

 
Airport distance calculator
Flying to Maples Field Airport? Find the distance to fly.

From to VG57

Sunrise and sunset
Times for 25-Sep-2017
 Local
(UTC-4)
 Zulu
(UTC)
Morning civil twilight06:3510:35
Sunrise07:0211:02
Sunset19:0223:02
Evening civil twilight19:2923:29

Current date and time
Zulu (UTC)  25-Sep-2017 18:07:27
Local (UTC-4)  25-Sep-2017 14:07:27
 
METAR
KHWY 
6nm W 
251755Z AUTO 09006KT 10SM SCT047 33/17 A3002 RMK AO2 P0003 60003 T03260169 10326 20172
KHEF 
7nm NE 
251756Z AUTO 12006KT 10SM CLR 32/21 A3002 RMK AO2 SLP173 6//// T03170206 10317 20172 58016 PNO $
KRMN 
14nm SE 
251755Z AUTO 08005KT 10SM CLR 31/18 A3006 RMK AO2 T03100181 10311 20174
KNYG 
15nm SE 
251756Z 06006KT 10SM FEW050 BKN250 31/21 A3002 RMK AO2 SLP166 T03110206 10311 20200 58016
TAF
KNYG 
15nm SE 
2515/2615 VRB06KT 9999 SCT200 QNH2995INS BECMG 2606/2608 03007KT SCT015 BKN040 BKN150 523009 523903 QNH2998INS T32/2520Z T18/2610Z
NOTAMs
Click for the latest NOTAMs
NOTAMs are issued by the DoD/FAA and will open in a separate window not controlled by AirNav.

 

 
 

Would you like to see your business listed on this page?

 If your business provides an interesting product or service to pilots, flight crews, aircraft, or users of the Maples Field Airport, you should consider listing it here.  To start the listing process, click on the button below
 
Add a business
 

Other Pages about Maples Field Airport

www.flyvirginia.com/...
members.aol.com/...
members.aol.com/...
members.aol.com/...
 
Update a link
 
Copyright © AirNav, LLC. All rights reserved. Privacy Policy  Contact